| time (UTC) | temp C | wind direction | speed KPH | gust KPH | rain 1hr cm | rain 24hr cm | rain mn cm | humidity % | barometer mb |
| 20260504034803 | 11 | 260 | 0.0 | 0.0 | 0.00 | 0.00 | 0.00 | 43 | 1016.9 |
| 20260504034304 | 11 | 260 | 0.0 | 0.0 | 0.00 | 0.00 | 0.00 | 44 | 1016.9 |
| 20260504032803 | 11 | 260 | 0.0 | 1.6 | 0.00 | 0.00 | 0.00 | 41 | 1016.9 |
| 20260504032304 | 11 | 305 | 0.0 | 1.6 | 0.00 | 0.00 | 0.00 | 41 | 1016.9 |
| 20260504031804 | 11 | 305 | 1.6 | 1.6 | 0.00 | 0.00 | 0.00 | 42 | 1016.9 |
| 20260504031304 | 11 | 305 | 0.0 | 1.6 | 0.00 | 0.00 | 0.00 | 42 | 1016.9 |
| 20260504025803 | 11 | 305 | 0.0 | 0.0 | 0.00 | 0.00 | 0.00 | 40 | 1016.9 |
| 20260504025304 | 11 | 305 | 0.0 | 0.0 | 0.00 | 0.00 | 0.00 | 40 | 1016.9 |
| 20260504024303 | 12 | 305 | 0.0 | 0.0 | 0.00 | 0.00 | 0.00 | 39 | 1016.9 |
| 20260504023803 | 12 | 305 | 0.0 | 0.0 | 0.00 | 0.00 | 0.00 | 37 | 1016.9 |
| 20260504023303 | 12 | 305 | 0.0 | 0.0 | 0.00 | 0.00 | 0.00 | 37 | 1017.0 |
| 20260504022804 | 12 | 305 | 0.0 | 1.6 | 0.00 | 0.00 | 0.00 | 37 | 1016.9 |
| 20260504021803 | 12 | 303 | 0.0 | 1.6 | 0.00 | 0.00 | 0.00 | 38 | 1016.9 |
| 20260504021304 | 12 | 328 | 0.0 | 1.6 | 0.00 | 0.00 | 0.00 | 39 | 1016.8 |
| 20260504020804 | 12 | 324 | 0.0 | 3.2 | 0.00 | 0.00 | 0.00 | 39 | 1016.8 |
| 20260504015804 | 11 | 245 | 1.6 | 1.6 | 0.00 | 0.00 | 0.00 | 41 | 1016.5 |
| 20260504014804 | 11 | 323 | 0.0 | 1.6 | 0.00 | 0.00 | 0.00 | 41 | 1016.5 |
| 20260504014304 | 11 | 323 | 0.0 | 1.6 | 0.00 | 0.00 | 0.00 | 42 | 1016.5 |
| 20260504013804 | 11 | 312 | 0.0 | 1.6 | 0.00 | 0.00 | 0.00 | 41 | 1016.5 |
| 20260504013305 | 11 | 308 | 0.0 | 1.6 | 0.00 | 0.00 | 0.00 | 39 | 1016.4 |
| 20260504012304 | 11 | 308 | 0.0 | 0.0 | 0.00 | 0.00 | 0.00 | 40 | 1016.2 |
| 20260504011804 | 11 | 308 | 0.0 | 1.6 | 0.00 | 0.00 | 0.00 | 38 | 1016.2 |
| 20260504011304 | 11 | 328 | 0.0 | 1.6 | 0.00 | 0.00 | 0.00 | 38 | 1016.1 |
| 20260504010804 | 11 | 328 | 0.0 | 1.6 | 0.00 | 0.00 | 0.00 | 38 | 1016.0 |
| 20260504010303 | 11 | 328 | 0.0 | 3.2 | 0.00 | 0.00 | 0.00 | 38 | 1016.1 |
| 20260504005804 | 11 | 211 | 0.0 | 1.6 | 0.00 | 0.00 | 0.00 | 37 | 1016.1 |
| 20260504005305 | 12 | 211 | 0.0 | 0.0 | 0.00 | 0.00 | 0.00 | 37 | 1016.0 |
| 20260504004804 | 12 | 211 | 0.0 | 3.2 | 0.00 | 0.00 | 0.00 | 35 | 1016.0 |
| 20260504004305 | 12 | 242 | 0.0 | 1.6 | 0.00 | 0.00 | 0.00 | 35 | 1016.0 |
| 20260504003805 | 12 | 242 | 0.0 | 0.0 | 0.00 | 0.00 | 0.00 | 35 | 1016.0 |
| 20260504003304 | 12 | 242 | 0.0 | 1.6 | 0.00 | 0.00 | 0.00 | 35 | 1016.0 |
| 20260504002803 | 12 | 242 | 1.6 | 1.6 | 0.00 | 0.00 | 0.00 | 33 | 1015.9 |
| 20260504002304 | 13 | 243 | 0.0 | 1.6 | 0.00 | 0.00 | 0.00 | 33 | 1015.9 |
| 20260504001804 | 13 | 243 | 0.0 | 0.0 | 0.00 | 0.00 | 0.00 | 31 | 1015.9 |
| 20260504001304 | 13 | 243 | 0.0 | 1.6 | 0.00 | 0.00 | 0.00 | 31 | 1015.9 |
| 20260504000803 | 14 | 243 | 0.0 | 1.6 | 0.00 | 0.00 | 0.00 | 30 | 1015.9 |
| 20260503235304 | 15 | 250 | 1.6 | 3.2 | 0.00 | 0.00 | 0.00 | 26 | 1015.8 |
| 20260503234804 | 15 | 244 | 1.6 | 3.2 | 0.00 | 0.00 | 0.00 | 27 | 1015.8 |
| 20260503234304 | 15 | 240 | 1.6 | 3.2 | 0.00 | 0.00 | 0.00 | 26 | 1015.8 |
| 20260503233804 | 16 | 206 | 1.6 | 4.8 | 0.00 | 0.00 | 0.00 | 25 | 1015.8 |
| 20260503233304 | 16 | 272 | 3.2 | 4.8 | 0.00 | 0.00 | 0.00 | 24 | 1015.8 |
| 20260503232804 | 16 | 243 | 1.6 | 3.2 | 0.00 | 0.00 | 0.00 | 25 | 1015.7 |
| 20260503232305 | 16 | 334 | 1.6 | 1.6 | 0.00 | 0.00 | 0.00 | 26 | 1015.7 |
| 20260503231804 | 16 | 277 | 1.6 | 4.8 | 0.00 | 0.00 | 0.00 | 24 | 1015.6 |
| 20260503231304 | 16 | 226 | 1.6 | 3.2 | 0.00 | 0.00 | 0.00 | 24 | 1015.5 |
| 20260503230804 | 17 | 226 | 1.6 | 3.2 | 0.00 | 0.00 | 0.00 | 25 | 1015.5 |
| 20260503230304 | 17 | 249 | 1.6 | 3.2 | 0.00 | 0.00 | 0.00 | 24 | 1015.5 |
| 20260503225804 | 17 | 259 | 1.6 | 4.8 | 0.00 | 0.00 | 0.00 | 22 | 1015.4 |
| 20260503225304 | 17 | 239 | 1.6 | 3.2 | 0.00 | 0.00 | 0.00 | 23 | 1015.5 |
| 20260503224804 | 17 | 270 | 1.6 | 3.2 | 0.00 | 0.00 | 0.00 | 22 | 1015.5 |
| 20260503224304 | 18 | 253 | 1.6 | 4.8 | 0.00 | 0.00 | 0.00 | 22 | 1015.6 |
| 20260503223804 | 18 | 227 | 1.6 | 4.8 | 0.00 | 0.00 | 0.00 | 21 | 1015.6 |
| 20260503223304 | 19 | 253 | 1.6 | 8.0 | 0.00 | 0.00 | 0.00 | 21 | 1015.6 |
| 20260503222804 | 19 | 234 | 1.6 | 3.2 | 0.00 | 0.00 | 0.00 | 20 | 1015.6 |
| 20260503222304 | 18 | 229 | 1.6 | 4.8 | 0.00 | 0.00 | 0.00 | 18 | 1015.6 |
| 20260503221804 | 18 | 225 | 1.6 | 4.8 | 0.00 | 0.00 | 0.00 | 20 | 1015.6 |
| 20260503221305 | 18 | 273 | 1.6 | 4.8 | 0.00 | 0.00 | 0.00 | 21 | 1015.6 |
| 20260503220804 | 18 | 285 | 3.2 | 4.8 | 0.00 | 0.00 | 0.00 | 18 | 1015.6 |
| 20260503215803 | 18 | 277 | 3.2 | 4.8 | 0.00 | 0.00 | 0.00 | 20 | 1015.5 |
| 20260503214804 | 18 | 225 | 3.2 | 8.0 | 0.00 | 0.00 | 0.00 | 17 | 1015.6 |
| 20260503214305 | 18 | 274 | 3.2 | 8.0 | 0.00 | 0.00 | 0.00 | 18 | 1015.6 |
| 20260503213805 | 19 | 247 | 3.2 | 8.0 | 0.00 | 0.00 | 0.00 | 19 | 1015.7 |
| 20260503213304 | 19 | 257 | 1.6 | 4.8 | 0.00 | 0.00 | 0.00 | 19 | 1015.7 |
| 20260503212803 | 18 | 282 | 3.2 | 8.0 | 0.00 | 0.00 | 0.00 | 18 | 1015.8 |
| 20260503212305 | 18 | 284 | 4.8 | 9.7 | 0.00 | 0.00 | 0.00 | 18 | 1015.8 |
| 20260503211304 | 19 | 267 | 3.2 | 4.8 | 0.00 | 0.00 | 0.00 | 17 | 1015.7 |
| 20260503210803 | 19 | 259 | 3.2 | 12.9 | 0.00 | 0.00 | 0.00 | 19 | 1015.8 |
| 20260503210304 | 19 | 243 | 3.2 | 11.3 | 0.00 | 0.00 | 0.00 | 20 | 1015.8 |
| 20260503205804 | 19 | 284 | 1.6 | 8.0 | 0.00 | 0.00 | 0.00 | 21 | 1015.9 |
| 20260503205304 | 19 | 273 | 4.8 | 9.7 | 0.00 | 0.00 | 0.00 | 21 | 1015.9 |
| 20260503204804 | 18 | 106 | 1.6 | 3.2 | 0.00 | 0.00 | 0.00 | 21 | 1015.8 |
| 20260503204303 | 18 | 232 | 3.2 | 9.7 | 0.00 | 0.00 | 0.00 | 20 | 1015.9 |
| 20260503203804 | 18 | 188 | 3.2 | 9.7 | 0.00 | 0.00 | 0.00 | 20 | 1016.1 |
| 20260503203304 | 18 | 218 | 3.2 | 11.3 | 0.00 | 0.00 | 0.00 | 20 | 1016.1 |
| 20260503202803 | 18 | 261 | 4.8 | 14.5 | 0.00 | 0.00 | 0.00 | 20 | 1016.1 |
| 20260503202304 | 18 | 261 | 3.2 | 8.0 | 0.00 | 0.00 | 0.00 | 24 | 1016.1 |
| 20260503201805 | 18 | 248 | 4.8 | 8.0 | 0.00 | 0.00 | 0.00 | 21 | 1016.1 |
| 20260503201304 | 18 | 349 | 1.6 | 9.7 | 0.00 | 0.00 | 0.00 | 23 | 1016.1 |
| 20260503200803 | 18 | 281 | 3.2 | 11.3 | 0.00 | 0.00 | 0.00 | 22 | 1016.2 |
| 20260503200303 | 18 | 311 | 3.2 | 4.8 | 0.00 | 0.00 | 0.00 | 22 | 1016.4 |
| 20260503195803 | 18 | 314 | 3.2 | 4.8 | 0.00 | 0.00 | 0.00 | 21 | 1016.5 |
| 20260503195304 | 18 | 276 | 3.2 | 11.3 | 0.00 | 0.00 | 0.00 | 22 | 1016.7 |
| 20260503194803 | 18 | 263 | 3.2 | 9.7 | 0.00 | 0.00 | 0.00 | 23 | 1016.6 |
| 20260503194304 | 18 | 275 | 4.8 | 9.7 | 0.00 | 0.00 | 0.00 | 24 | 1016.7 |
| 20260503193804 | 18 | 192 | 3.2 | 9.7 | 0.00 | 0.00 | 0.00 | 23 | 1016.7 |
| 20260503192803 | 18 | 271 | 4.8 | 14.5 | 0.00 | 0.00 | 0.00 | 24 | 1016.7 |
| 20260503192305 | 17 | 266 | 3.2 | 8.0 | 0.00 | 0.00 | 0.00 | 24 | 1016.7 |
| 20260503191804 | 17 | 343 | 4.8 | 11.3 | 0.00 | 0.00 | 0.00 | 22 | 1016.8 |
| 20260503191303 | 17 | 215 | 4.8 | 16.1 | 0.00 | 0.00 | 0.00 | 23 | 1017.0 |
| 20260503190805 | 17 | 176 | 6.4 | 14.5 | 0.00 | 0.00 | 0.00 | 24 | 1017.1 |
| 20260503190303 | 17 | 247 | 4.8 | 16.1 | 0.00 | 0.00 | 0.00 | 24 | 1017.1 |
| 20260503185804 | 17 | 333 | 3.2 | 8.0 | 0.00 | 0.00 | 0.00 | 25 | 1017.1 |
| 20260503185305 | 17 | 217 | 3.2 | 9.7 | 0.00 | 0.00 | 0.00 | 26 | 1017.3 |
| 20260503184803 | 17 | 336 | 3.2 | 4.8 | 0.00 | 0.00 | 0.00 | 24 | 1017.4 |
| 20260503184303 | 17 | 259 | 1.6 | 4.8 | 0.00 | 0.00 | 0.00 | 24 | 1017.6 |
| 20260503183304 | 17 | 298 | 3.2 | 12.9 | 0.00 | 0.00 | 0.00 | 27 | 1017.6 |
| 20260503182305 | 16 | 242 | 4.8 | 11.3 | 0.00 | 0.00 | 0.00 | 25 | 1017.7 |
| 20260503181804 | 16 | 346 | 4.8 | 11.3 | 0.00 | 0.00 | 0.00 | 28 | 1017.7 |
| 20260503181303 | 16 | 329 | 3.2 | 12.9 | 0.00 | 0.00 | 0.00 | 27 | 1017.7 |
| 20260503180303 | 16 | 253 | 1.6 | 4.8 | 0.00 | 0.00 | 0.00 | 29 | 1017.9 |
| 20260503175804 | 16 | 245 | 4.8 | 9.7 | 0.00 | 0.00 | 0.00 | 28 | 1018.0 |
| 20260503174304 | 16 | 235 | 3.2 | 11.3 | 0.00 | 0.00 | 0.00 | 27 | 1017.9 |
| 20260503173803 | 16 | 215 | 4.8 | 9.7 | 0.00 | 0.00 | 0.00 | 27 | 1018.0 |
| 20260503173304 | 16 | 241 | 3.2 | 4.8 | 0.00 | 0.00 | 0.00 | 28 | 1018.1 |
| 20260503172803 | 16 | 49 | 3.2 | 11.3 | 0.00 | 0.00 | 0.00 | 31 | 1018.2 |
| 20260503172305 | 15 | 321 | 3.2 | 8.0 | 0.00 | 0.00 | 0.00 | 30 | 1018.1 |
| 20260503171804 | 15 | 235 | 3.2 | 8.0 | 0.00 | 0.00 | 0.00 | 28 | 1018.2 |
| 20260503171303 | 15 | 220 | 4.8 | 12.9 | 0.00 | 0.00 | 0.00 | 28 | 1018.3 |
| 20260503170804 | 15 | 337 | 3.2 | 14.5 | 0.00 | 0.00 | 0.00 | 33 | 1018.5 |
| 20260503150803 | 12 | 222 | 1.6 | 8.0 | 0.00 | 0.00 | 0.00 | 36 | 1019.8 |
| 20260503150303 | 12 | 342 | 1.6 | 11.3 | 0.00 | 0.00 | 0.00 | 35 | 1019.8 |
| 20260503140303 | 10 | 233 | 3.2 | 8.0 | 0.00 | 0.00 | 0.00 | 38 | 1020.0 |
| 20260503131305 | 8 | 160 | 3.2 | 11.3 | 0.00 | 0.00 | 0.00 | 42 | 1019.7 |
| 20260503130805 | 8 | 237 | 3.2 | 14.5 | 0.00 | 0.00 | 0.00 | 43 | 1019.7 |
| 20260503110803 | 3 | 231 | 0.0 | 1.6 | 0.00 | 0.00 | 0.00 | 61 | 1018.8 |
| 20260503110303 | 3 | 231 | 0.0 | 1.6 | 0.00 | 0.00 | 0.00 | 61 | 1018.6 |
| 20260503090304 | 5 | 233 | 0.0 | 3.2 | 0.00 | 0.00 | 0.00 | 56 | 1016.9 |
| 20260503081304 | 5 | 242 | 0.0 | 1.6 | 0.00 | 0.00 | 0.00 | 62 | 1016.3 |
| 20260503080804 | 5 | 249 | 0.0 | 1.6 | 0.00 | 0.00 | 0.00 | 64 | 1016.3 |
| 20260503072804 | 5 | 219 | 0.0 | 3.2 | 0.00 | 0.00 | 0.00 | 67 | 1016.1 |
| 20260503072305 | 5 | 242 | 0.0 | 3.2 | 0.00 | 0.00 | 0.00 | 64 | 1015.9 |
| 20260503071804 | 5 | 253 | 0.0 | 3.2 | 0.00 | 0.00 | 0.00 | 65 | 1016.0 |
| 20260503071304 | 4 | 239 | 0.0 | 1.6 | 0.00 | 0.00 | 0.00 | 67 | 1016.0 |
| 20260503070803 | 4 | 222 | 0.0 | 0.0 | 0.00 | 0.00 | 0.00 | 68 | 1015.9 |
| 20260503070304 | 4 | 222 | 0.0 | 1.6 | 0.00 | 0.00 | 0.00 | 68 | 1015.9 |
| 20260503060304 | 3 | 242 | 0.0 | 0.0 | 0.00 | 0.00 | 0.00 | 70 | 1015.7 |
| 20260503054804 | 3 | 242 | 0.0 | 0.0 | 0.00 | 0.00 | 0.00 | 69 | 1015.8 |
| 20260503054304 | 3 | 242 | 0.0 | 0.0 | 0.00 | 0.00 | 0.00 | 68 | 1015.7 |
| 20260503053805 | 3 | 242 | 0.0 | 0.0 | 0.00 | 0.00 | 0.00 | 68 | 1015.7 |
| 20260503053304 | 3 | 242 | 0.0 | 0.0 | 0.00 | 0.00 | 0.00 | 67 | 1015.7 |
| 20260503052305 | 4 | 242 | 0.0 | 0.0 | 0.00 | 0.00 | 0.00 | 66 | 1015.7 |
| 20260503051805 | 4 | 242 | 0.0 | 0.0 | 0.00 | 0.00 | 0.00 | 66 | 1015.7 |
| 20260503050804 | 4 | 242 | 0.0 | 0.0 | 0.00 | 0.00 | 0.00 | 66 | 1015.6 |
| 20260503050304 | 4 | 242 | 0.0 | 0.0 | 0.00 | 0.00 | 0.00 | 66 | 1015.6 |
| 20260503045803 | 4 | 242 | 0.0 | 0.0 | 0.00 | 0.00 | 0.00 | 64 | 1015.6 |
| 20260503044304 | 5 | 242 | 0.0 | 0.0 | 0.00 | 0.00 | 0.00 | 62 | 1015.5 |
| 20260503043803 | 5 | 242 | 0.0 | 0.0 | 0.00 | 0.00 | 0.00 | 62 | 1015.6 |
| 20260503043303 | 5 | 242 | 0.0 | 0.0 | 0.00 | 0.00 | 0.00 | 61 | 1015.5 |
| 20260503042805 | 5 | 242 | 0.0 | 0.0 | 0.00 | 0.00 | 0.00 | 61 | 1015.5 |
| 20260503042305 | 5 | 242 | 0.0 | 1.6 | 0.00 | 0.00 | 0.00 | 60 | 1015.5 |
| 20260503041803 | 5 | 242 | 0.0 | 0.0 | 0.00 | 0.00 | 0.00 | 59 | 1015.5 |
| 20260503041303 | 5 | 242 | 0.0 | 0.0 | 0.00 | 0.00 | 0.00 | 60 | 1015.6 |
| 20260503040803 | 6 | 242 | 0.0 | 0.0 | 0.00 | 0.00 | 0.00 | 59 | 1015.6 |
| 20260503040303 | 6 | 242 | 0.0 | 0.0 | 0.00 | 0.00 | 0.00 | 58 | 1015.6 |
| 20260503035803 | 6 | 242 | 0.0 | 0.0 | 0.00 | 0.00 | 0.00 | 56 | 1015.5 |
| 20260503035304 | 6 | 242 | 0.0 | 0.0 | 0.00 | 0.00 | 0.00 | 54 | 1015.5 |